Location: Newark
(41.6500°N, 71.4833°W)
Time: 05:25:57
(UTC+00:00)

A-11 Canister half - Pass Details

Date: 24 January 2020
Orbit: 1517 x 1683 km, 47.2° (Epoch: 19 February)

Event Time Altitude Azimuth Distance (km) Brightness Sun altitude
Rises 04:59:29 0° 239° (WSW) 4,736 - -67.7°
Reaches altitude 10° 05:02:34 10° 239° (WSW) 3,735 - -67.7°
Maximum altitude 05:12:00 86° 153° (SSE) 1,533 - -67.5°
Drops below altitude 10° 05:21:17 10° 65° (ENE) 3,681 - -67.1°
Sets 05:24:18 0° 65° (ENE) 4,666 - -67.0°
Exits shadow 05:24:24 - 65° (ENE) 4,698 11.8 -67.0°
